Flag for USA

Past Weather in Annapolis, Maryland, USA — Yesterday and Last 2 Weeks

Now
74 °F

Sunny.


Feels Like: 73 °F
Forecast: 75 / 67 °F
Wind: 6 mph from Southeast

Location: Annapolis - United States Naval Academy
Current Time: Sep 27, 2020 at 6:04:52 pm
Latest Report: Sep 27, 2020 at 4:54 pm
Visibility: 10 mi
Pressure29.90 "Hg
Humidity: 88%
Dew Point: 70 °F
Location of AnnapolisLocation

Past Weather in Annapolis — Graph

°F

Annapolis Temperature Yesterday

Maximum temperature yesterday: 71 °F (at 4:54 pm)
Minimum temperature yesterday: 62 °F (at 1:02 am)
Average temperature yesterday: 66 °F

High & Low Weather Summary for the Past Weeks

 TemperatureHumidityPressure
High79 °F (Sep 23, 4:54 pm)100% (Sep 13, 11:54 pm)30.57 "Hg (Sep 13, 11:54 pm)
Low50 °F (Sep 22, 2:54 am)36% (Sep 22, 1:54 pm)29.88 "Hg (Sep 18, 4:54 am)
Average66 °F80%30.13 "Hg
* Reported Sep 12 4:54 pm — Sep 27 4:54 pm, Annapolis. Weather by CustomWeather, © 2020

Note: Actual official high and low records may vary slightly from our data, if they occured in-between our weather recording intervals... More about our weather records

Annapolis Weather History for the Previous 24 Hours

Scroll right to see more
 ConditionsComfort  
Time TempWeatherWind HumidityBarometerVisibility
4:54 pm
Sun, Sep 27
74 °FSunny.6 mph88%29.90 "Hg10 mi
3:54 pm74 °FSunny.8 mph97%29.91 "Hg10 mi
2:54 pm76 °FOvercast.6 mph88%29.92 "Hg10 mi
1:54 pm73 °FOvercast.6 mph97%29.95 "Hg10 mi
1:14 pm72 °FCloudy.7 mph97%29.96 "Hg9 mi
12:54 pm71 °FMostly cloudy.7 mph100%29.97 "Hg10 mi
12:05 pm71 °FMore clouds than sun.3 mph100%29.98 "Hg10 mi
11:54 am71 °FLow clouds.No wind100%29.98 "Hg10 mi
11:20 am70 °FFog.No wind100%29.99 "Hg3 mi
11:13 am70 °FFog.No wind100%29.99 "Hg2 mi
10:54 am70 °FFog.No wind100%30.00 "Hg5 mi
9:54 am69 °FLow clouds.5 mph100%30.00 "Hg10 mi
8:54 am69 °FLow clouds.3 mph100%29.99 "Hg10 mi
7:54 am68 °FFog.5 mph100%29.98 "Hg3 mi
7:33 am68 °FFog.5 mphN/A29.98 "Hg3 mi
7:15 am68 °FFog.3 mph100%29.97 "Hg2 mi
6:53 am69 °FFog.3 mph100%29.97 "Hg2 mi
6:25 am69 °FFog.3 mph100%29.96 "Hg1 mi
6:13 am69 °FFog.3 mph100%29.96 "Hg2 mi
5:54 am69 °FFog.5 mph100%29.96 "Hg1 mi
5:13 am69 °FFog.No wind100%29.95 "Hg1 mi
5:03 am68 °FFog.No wind100%29.95 "Hg2 mi
4:54 am68 °FFog.No wind100%29.96 "Hg1 mi
4:21 am68 °FFog.No wind100%29.95 "Hg1 mi
3:54 am68 °FFog.No wind100%29.96 "Hg0 mi
2:54 am68 °FFog.No wind100%29.96 "Hg0 mi
2:33 am68 °FFog.No wind100%29.95 "Hg1 mi
2:05 am68 °FFog.No wind100%29.96 "Hg2 mi
1:39 am68 °FFog.No wind100%29.97 "Hg1 mi
12:54 am69 °FFog.6 mph100%29.97 "Hg5 mi
11:54 pm
Sat, Sep 26
69 °FLow clouds.3 mph100%29.99 "Hg7 mi
11:30 pm69 °FFog.No wind100%29.99 "Hg5 mi
11:07 pm70 °FLight rain. Fog.No wind100%29.99 "Hg5 mi
10:35 pm70 °FMostly cloudy.5 mph100%29.99 "Hg7 mi
10:19 pm70 °FMostly cloudy.5 mph100%29.99 "Hg8 mi
10:12 pm70 °FOvercast.5 mph100%29.99 "Hg9 mi
8:54 pm70 °FLight rain. Fog.3 mph100%30.00 "Hg3 mi
7:54 pm70 °FOvercast.3 mph100%29.99 "Hg10 mi
6:54 pm70 °FMostly cloudy.3 mph100%29.99 "Hg10 mi
Weather by CustomWeather, © 2020

See weather overview